Time,TemperatureF,DewpointF,PressureIn,WindDirection,WindDirectionDegrees,WindSpeedMPH,WindSpeedGustMPH,Humidity,HourlyPrecipIn,Conditions,Clouds,dailyrainin,SolarRadiationWatts/m^2,SoftwareType,DateUTC
2013-09-21 00:12:00,57.1,29.0,31.10,South,176,6.0,8.0,34,0.00,,,0.00,0,weatherlink.com 1.10,2013-09-21 06:12:00,
2013-09-21 00:28:00,57.5,28.0,31.10,South,175,0.0,4.0,33,0.00,,,0.00,0,weatherlink.com 1.10,2013-09-21 06:28:00,
2013-09-21 00:43:00,58.2,28.0,31.10,South,175,3.0,4.0,32,0.00,,,0.00,0,weatherlink.com 1.10,2013-09-21 06:43:00,
2013-09-21 00:58:00,58.6,29.0,31.09,South,183,0.0,6.0,32,0.00,,,0.00,0,weatherlink.com 1.10,2013-09-21 06:58:00,
2013-09-21 01:13:00,58.9,29.0,31.09,SSW,198,4.0,6.0,32,0.00,,,0.00,0,weatherlink.com 1.10,2013-09-21 07:13:00,
2013-09-21 01:28:00,59.7,28.0,31.09,South,183,3.0,7.0,30,0.00,,,0.00,0,weatherlink.com 1.10,2013-09-21 07:28:00,
2013-09-21 01:43:00,66.0,28.0,31.09,SSE,150,11.0,16.0,24,0.00,,,0.00,0,weatherlink.com 1.10,2013-09-21 07:43:00,
2013-09-21 01:58:00,66.3,27.0,31.09,South,169,9.0,14.0,23,0.00,,,0.00,0,weatherlink.com 1.10,2013-09-21 07:58:00,
2013-09-21 02:13:00,66.5,26.0,31.08,SSE,154,13.0,19.0,22,0.00,,,0.00,0,weatherlink.com 1.10,2013-09-21 08:13:00,
2013-09-21 02:28:00,66.3,26.0,31.08,SSE,153,11.0,17.0,22,0.00,,,0.00,0,weatherlink.com 1.10,2013-09-21 08:28:00,
2013-09-21 02:43:00,66.2,26.0,31.08,SSE,155,10.0,16.0,22,0.00,,,0.00,0,weatherlink.com 1.10,2013-09-21 08:43:00,
2013-09-21 02:58:00,66.2,26.0,31.07,SSE,151,14.0,18.0,22,0.00,,,0.00,0,weatherlink.com 1.10,2013-09-21 08:58:00,
2013-09-21 03:13:00,66.0,25.0,31.07,SE,144,14.0,18.0,21,0.00,,,0.00,0,weatherlink.com 1.10,2013-09-21 09:13:00,
2013-09-21 03:28:00,66.0,25.0,31.06,SSE,149,9.0,16.0,21,0.00,,,0.00,0,weatherlink.com 1.10,2013-09-21 09:28:00,
2013-09-21 03:43:00,65.7,25.0,31.06,SSE,156,16.0,17.0,21,0.00,,,0.00,0,weatherlink.com 1.10,2013-09-21 09:43:00,
2013-09-21 03:58:00,65.3,25.0,31.06,SE,141,11.0,15.0,22,0.00,,,0.00,0,weatherlink.com 1.10,2013-09-21 09:58:00,
2013-09-21 04:13:00,65.4,25.0,31.06,SE,142,13.0,17.0,22,0.00,,,0.00,0,weatherlink.com 1.10,2013-09-21 10:13:00,
2013-09-21 04:28:00,65.4,25.0,31.05,SE,146,8.0,18.0,22,0.00,,,0.00,0,weatherlink.com 1.10,2013-09-21 10:28:00,
2013-09-21 04:43:00,64.9,25.0,31.05,SSE,158,7.0,18.0,22,0.00,,,0.00,0,weatherlink.com 1.10,2013-09-21 10:43:00,
2013-09-21 04:58:00,65.0,25.0,31.05,SSE,155,18.0,20.0,22,0.00,,,0.00,0,weatherlink.com 1.10,2013-09-21 10:58:00,
2013-09-21 05:13:00,64.8,25.0,31.04,SSE,154,14.0,17.0,22,0.00,,,0.00,0,weatherlink.com 1.10,2013-09-21 11:13:00,
2013-09-21 05:28:00,64.5,25.0,31.04,SSE,157,16.0,17.0,22,0.00,,,0.00,0,weatherlink.com 1.10,2013-09-21 11:28:00,
2013-09-21 05:43:00,64.5,25.0,31.04,SSE,159,12.0,17.0,22,0.00,,,0.00,0,weatherlink.com 1.10,2013-09-21 11:43:00,
2013-09-21 05:58:00,64.6,25.0,31.05,SE,138,10.0,16.0,22,0.00,,,0.00,0,weatherlink.com 1.10,2013-09-21 11:58:00,
2013-09-21 06:13:00,63.5,27.0,31.04,West,281,3.0,13.0,25,0.00,,,0.00,0,weatherlink.com 1.10,2013-09-21 12:13:00,
2013-09-21 06:28:00,55.7,28.0,31.05,West,280,2.0,4.0,34,0.00,,,0.00,0,weatherlink.com 1.10,2013-09-21 12:28:00,
2013-09-21 06:43:00,52.9,28.0,31.05,West,280,0.0,2.0,38,0.00,,,0.00,0,weatherlink.com 1.10,2013-09-21 12:43:00,
2013-09-21 06:58:00,51.3,29.0,31.05,West,280,0.0,2.0,42,0.00,,,0.00,0,weatherlink.com 1.10,2013-09-21 12:58:00,
2013-09-21 07:13:00,50.4,28.0,31.05,West,280,0.0,1.0,43,0.00,,,0.00,0,weatherlink.com 1.10,2013-09-21 13:13:00,
2013-09-21 07:28:00,51.4,28.0,31.05,West,280,0.0,2.0,41,0.00,,,0.00,9,weatherlink.com 1.10,2013-09-21 13:28:00,
2013-09-21 07:43:00,52.1,28.0,31.05,West,280,0.0,3.0,40,0.00,,,0.00,25,weatherlink.com 1.10,2013-09-21 13:43:00,
2013-09-21 07:58:00,52.7,28.0,31.06,West,280,0.0,3.0,39,0.00,,,0.00,32,weatherlink.com 1.10,2013-09-21 13:58:00,
2013-09-21 08:13:00,53.1,28.0,31.05,West,280,0.0,0.0,38,0.00,,,0.00,33,weatherlink.com 1.10,2013-09-21 14:13:00,
2013-09-21 08:28:00,53.4,28.0,31.05,West,280,0.0,0.0,38,0.00,,,0.00,44,weatherlink.com 1.10,2013-09-21 14:28:00,
2013-09-21 08:44:00,53.7,28.0,31.04,West,280,0.0,2.0,38,0.00,,,0.00,56,weatherlink.com 1.10,2013-09-21 14:44:00,
2013-09-21 08:59:00,53.9,28.0,31.04,West,280,0.0,1.0,37,0.00,,,0.00,81,weatherlink.com 1.10,2013-09-21 14:59:00,
2013-09-21 09:14:00,55.4,31.0,31.04,West,280,0.0,0.0,39,0.00,,,0.00,199,weatherlink.com 1.10,2013-09-21 15:14:00,
2013-09-21 09:29:00,57.4,30.0,31.03,West,280,0.0,2.0,35,0.00,,,0.00,204,weatherlink.com 1.10,2013-09-21 15:29:00,
2013-09-21 09:44:00,58.4,31.0,31.03,West,280,0.0,5.0,36,0.00,,,0.00,264,weatherlink.com 1.10,2013-09-21 15:44:00,
2013-09-21 09:59:00,58.1,31.0,31.02,West,280,1.0,3.0,36,0.00,,,0.00,322,weatherlink.com 1.10,2013-09-21 15:59:00,
2013-09-21 10:14:00,57.6,31.0,31.03,West,261,0.0,6.0,37,0.00,,,0.00,371,weatherlink.com 1.10,2013-09-21 16:14:00,
2013-09-21 10:29:00,59.1,33.0,31.03,SSW,209,5.0,7.0,37,0.00,,,0.00,313,weatherlink.com 1.10,2013-09-21 16:29:00,
2013-09-21 10:44:00,57.6,35.0,31.03,NNW,340,4.0,6.0,43,0.00,,,0.00,381,weatherlink.com 1.10,2013-09-21 16:44:00,
2013-09-21 10:59:00,53.7,31.0,31.02,NE,50,3.0,5.0,43,0.00,,,0.00,448,weatherlink.com 1.10,2013-09-21 16:59:00,
2013-09-21 11:14:00,58.4,30.0,31.02,NNE,28,0.0,5.0,34,0.00,,,0.00,360,weatherlink.com 1.10,2013-09-21 17:14:00,
2013-09-21 11:29:00,61.0,30.0,31.02,NNW,343,0.0,6.0,31,0.00,,,0.00,327,weatherlink.com 1.10,2013-09-21 17:29:00,
2013-09-21 11:44:00,61.9,32.0,31.02,NW,312,0.0,6.0,32,0.00,,,0.00,313,weatherlink.com 1.10,2013-09-21 17:44:00,
2013-09-21 11:59:00,62.4,33.0,31.02,NNW,345,2.0,8.0,33,0.00,,,0.00,359,weatherlink.com 1.10,2013-09-21 17:59:00,
2013-09-21 12:14:00,63.4,33.0,31.02,NNW,344,2.0,9.0,32,0.00,,,0.00,643,weatherlink.com 1.10,2013-09-21 18:14:00,
2013-09-21 12:29:00,63.2,33.0,31.02,NNW,327,7.0,8.0,32,0.00,,,0.00,705,weatherlink.com 1.10,2013-09-21 18:29:00,
2013-09-21 12:44:00,64.2,32.0,31.01,NNE,16,8.0,15.0,30,0.00,,,0.00,457,weatherlink.com 1.10,2013-09-21 18:44:00,
2013-09-21 12:59:00,64.7,32.0,31.01,NNE,16,9.0,15.0,30,0.00,,,0.00,513,weatherlink.com 1.10,2013-09-21 18:59:00,
2013-09-21 13:14:00,63.8,32.0,31.01,North,5,7.0,14.0,31,0.00,,,0.00,323,weatherlink.com 1.10,2013-09-21 19:14:00,
2013-09-21 13:29:00,64.1,33.0,31.00,North,360,10.0,12.0,32,0.00,,,0.00,343,weatherlink.com 1.10,2013-09-21 19:29:00,
2013-09-21 13:44:00,64.0,33.0,30.99,NNE,20,7.0,16.0,32,0.00,,,0.00,341,weatherlink.com 1.10,2013-09-21 19:44:00,
2013-09-21 13:59:00,63.6,33.0,30.99,NNE,23,10.0,18.0,32,0.00,,,0.00,320,weatherlink.com 1.10,2013-09-21 19:59:00,
2013-09-21 14:14:00,63.9,34.0,30.99,North,360,7.0,14.0,33,0.00,,,0.00,341,weatherlink.com 1.10,2013-09-21 20:14:00,
2013-09-21 14:29:00,63.6,34.0,30.99,North,11,7.0,14.0,33,0.00,,,0.00,325,weatherlink.com 1.10,2013-09-21 20:29:00,
2013-09-21 14:44:00,63.4,34.0,30.99,NNE,30,5.0,15.0,34,0.00,,,0.00,255,weatherlink.com 1.10,2013-09-21 20:44:00,
2013-09-21 14:59:00,63.2,35.0,30.98,North,9,9.0,14.0,35,0.00,,,0.00,271,weatherlink.com 1.10,2013-09-21 20:59:00,
2013-09-21 15:14:00,63.4,36.0,30.98,North,355,11.0,16.0,36,0.00,,,0.00,357,weatherlink.com 1.10,2013-09-21 21:14:00,
2013-09-21 15:29:00,63.4,35.0,30.98,North,9,8.0,16.0,35,0.00,,,0.00,329,weatherlink.com 1.10,2013-09-21 21:29:00,
2013-09-21 15:44:00,64.4,36.0,30.97,NNE,30,11.0,15.0,35,0.00,,,0.00,508,weatherlink.com 1.10,2013-09-21 21:44:00,
2013-09-21 15:59:00,65.6,36.0,30.97,North,5,12.0,16.0,34,0.00,,,0.00,606,weatherlink.com 1.10,2013-09-21 21:59:00,
2013-09-21 16:14:00,66.1,36.0,30.96,North,11,8.0,19.0,33,0.00,,,0.00,557,weatherlink.com 1.10,2013-09-21 22:14:00,
2013-09-21 16:29:00,65.6,36.0,30.96,North,360,7.0,16.0,33,0.00,,,0.00,450,weatherlink.com 1.10,2013-09-21 22:29:00,
2013-09-21 16:44:00,64.4,35.0,30.96,NNE,33,5.0,18.0,34,0.00,,,0.00,174,weatherlink.com 1.10,2013-09-21 22:44:00,
2013-09-21 16:59:00,63.5,35.0,30.96,North,360,6.0,12.0,35,0.00,,,0.00,144,weatherlink.com 1.10,2013-09-21 22:59:00,
2013-09-21 17:14:00,63.5,35.0,30.97,NNE,23,7.0,11.0,35,0.00,,,0.00,153,weatherlink.com 1.10,2013-09-21 23:14:00,
2013-09-21 17:29:00,63.1,36.0,30.98,NNE,13,6.0,12.0,36,0.00,,,0.00,93,weatherlink.com 1.10,2013-09-21 23:29:00,
2013-09-21 17:44:00,62.9,36.0,30.98,North,360,10.0,13.0,37,0.00,,,0.00,84,weatherlink.com 1.10,2013-09-21 23:44:00,
2013-09-21 17:59:00,62.8,36.0,30.98,NNE,21,7.0,11.0,37,0.00,,,0.00,97,weatherlink.com 1.10,2013-09-21 23:59:00,
2013-09-21 18:14:00,62.7,37.0,30.97,NNE,24,11.0,15.0,38,0.00,,,0.00,81,weatherlink.com 1.10,2013-09-22 00:14:00,
2013-09-21 18:29:00,62.4,36.0,30.97,NNW,348,10.0,12.0,38,0.00,,,0.00,60,weatherlink.com 1.10,2013-09-22 00:29:00,
2013-09-21 18:44:00,62.1,36.0,30.98,North,360,7.0,11.0,38,0.00,,,0.00,35,weatherlink.com 1.10,2013-09-22 00:44:00,
2013-09-21 18:59:00,61.4,36.0,30.97,NNE,21,5.0,11.0,39,0.00,,,0.00,16,weatherlink.com 1.10,2013-09-22 00:59:00,
2013-09-21 19:14:00,61.1,36.0,30.97,North,360,2.0,9.0,40,0.00,,,0.00,12,weatherlink.com 1.10,2013-09-22 01:14:00,
2013-09-21 19:29:00,60.8,37.0,30.98,NNE,17,2.0,7.0,41,0.00,,,0.00,0,weatherlink.com 1.10,2013-09-22 01:29:00,
2013-09-21 19:44:00,60.7,37.0,30.99,North,360,3.0,8.0,41,0.00,,,0.00,0,weatherlink.com 1.10,2013-09-22 01:44:00,
2013-09-21 19:59:00,60.4,36.0,30.99,NNW,332,1.0,5.0,41,0.00,,,0.00,0,weatherlink.com 1.10,2013-09-22 01:59:00,
2013-09-21 20:14:00,60.0,38.0,31.00,NNW,338,2.0,6.0,44,0.00,,,0.00,0,weatherlink.com 1.10,2013-09-22 02:14:00,
2013-09-21 20:29:00,59.6,39.0,31.00,NNW,327,0.0,5.0,46,0.00,,,0.00,0,weatherlink.com 1.10,2013-09-22 02:29:00,
2013-09-21 20:44:00,59.2,39.0,31.01,North,9,3.0,8.0,47,0.00,,,0.00,0,weatherlink.com 1.10,2013-09-22 02:44:00,
2013-09-21 20:59:00,59.3,38.0,31.02,North,9,5.0,7.0,45,0.00,,,0.00,0,weatherlink.com 1.10,2013-09-22 02:59:00,
2013-09-21 21:14:00,59.2,37.0,31.03,NNE,13,5.0,6.0,44,0.00,,,0.00,0,weatherlink.com 1.10,2013-09-22 03:14:00,
2013-09-21 21:29:00,59.0,37.0,31.03,NNE,32,4.0,9.0,44,0.00,,,0.00,0,weatherlink.com 1.10,2013-09-22 03:29:00,
2013-09-21 21:44:00,59.1,38.0,31.03,NNE,14,1.0,6.0,45,0.00,,,0.00,0,weatherlink.com 1.10,2013-09-22 03:44:00,
2013-09-21 21:59:00,58.6,38.0,31.03,NNE,14,1.0,9.0,46,0.00,,,0.00,0,weatherlink.com 1.10,2013-09-22 03:59:00,
2013-09-21 22:14:00,58.1,38.0,31.04,NNE,13,2.0,10.0,47,0.00,,,0.00,0,weatherlink.com 1.10,2013-09-22 04:14:00,
2013-09-21 22:29:00,57.5,38.0,31.04,NNE,18,3.0,5.0,49,0.00,,,0.00,0,weatherlink.com 1.10,2013-09-22 04:29:00,
2013-09-21 22:44:00,57.2,39.0,31.03,NNE,17,6.0,8.0,50,0.00,,,0.00,0,weatherlink.com 1.10,2013-09-22 04:44:00,
2013-09-21 22:59:00,57.2,39.0,31.04,NNE,27,5.0,7.0,50,0.00,,,0.00,0,weatherlink.com 1.10,2013-09-22 04:59:00,
2013-09-21 23:14:00,57.2,39.0,31.03,NNE,27,5.0,8.0,51,0.00,,,0.00,0,weatherlink.com 1.10,2013-09-22 05:14:00,
2013-09-21 23:29:00,57.5,39.0,31.02,NE,45,3.0,10.0,50,0.00,,,0.00,0,weatherlink.com 1.10,2013-09-22 05:29:00,
2013-09-21 23:44:00,57.4,39.0,31.01,NE,42,3.0,6.0,50,0.00,,,0.00,0,weatherlink.com 1.10,2013-09-22 05:44:00,